Location: *
(43.7000°S, 168.7000°W)
Time: 14:43:12
(UTC+00:00)

NOAA 11 - Pass Details

Date: 07 July 2020
Orbit: 833 x 849 km, 98.4° (Epoch: 04 August)

Event Time Altitude Azimuth Distance (km) Brightness Sun altitude
Rises 17:15:38 0° 19° (NNE) 3,401 7.9 -16.1°
Reaches altitude 10° 17:17:58 10° 20° (NNE) 2,476 7.1 -15.6°
Maximum altitude 17:23:29 80° 105° (ESE) 876 4.3 -14.7°
Drops below altitude 10° 17:29:05 10° 191° (SSW) 2,512 6.4 -13.7°
Sets 17:31:28 0° 192° (SSW) 3,455 7.1 -13.3°
